• In Uzbekistan
  • List of Countries
  • For 7 days
  • Water Temperature
  • Satellite Maps
  • Weather Map
  • Weather Widgets
  • user-avatar
    Login

    Hourly Weather Paredon

    Today, 21 July, Saturday

    Time Temperature Precipitation Wind Pressure Humidity
    00:00 +27°C° 0.3 mm 2 mps 759 mmHg 95%
    01:00 +27°C° 0.1 mm 2 mps 759 mmHg 95%
    02:00 +26°C° 0.1 mm 2 mps 759 mmHg 95%
    03:00 +26°C° 0.1 mm 2 mps 759 mmHg 95%
    04:00 +26°C° 0 mm 2 mps 759 mmHg 93%
    05:00 +26°C° 0 mm 2 mps 759 mmHg 92%
    06:00 +26°C° 0 mm 3 mps 759 mmHg 91%
    07:00 +28°C° 0 mm 2 mps 759 mmHg 82%
    08:00 +30°C° 0 mm 2 mps 759 mmHg 73%
    09:00 +32°C° 0 mm 2 mps 759 mmHg 65%
    10:00 +35°C° 0 mm 2 mps 759 mmHg 57%
    11:00 +37°C° 0 mm 2 mps 758 mmHg 50%
    12:00 +39°C° 0 mm 2 mps 758 mmHg 42%
    13:00 +39°C° 0.1 mm 3 mps 758 mmHg 45%
    14:00 +39°C° 0.1 mm 3 mps 757 mmHg 47%
    15:00 +40°C° 0.1 mm 4 mps 757 mmHg 49%
    16:00 +37°C° 0.2 mm 3 mps 757 mmHg 59%
    17:00 +35°C° 0.2 mm 3 mps 757 mmHg 68%
    18:00 +32°C° 0.2 mm 2 mps 757 mmHg 77%
    19:00 +31°C° 0 mm 2 mps 757 mmHg 80%
    20:00 +29°C° 0 mm 3 mps 758 mmHg 84%
    21:00 +28°C° 0 mm 3 mps 759 mmHg 87%
    22:00 +28°C° 0 mm 3 mps 759 mmHg 87%
    23:00 +28°C° 0 mm 3 mps 759 mmHg 88%

    Tomorrow, 22 July, Sunday

    Time Temperature Precipitation Wind Pressure Humidity
    00:00 +28°C° 0 mm 3 mps 759 mmHg 89%
    01:00 +28°C° 0 mm 3 mps 759 mmHg 89%
    02:00 +28°C° 0 mm 3 mps 758 mmHg 89%
    03:00 +28°C° 0 mm 3 mps 758 mmHg 89%
    04:00 +28°C° 0 mm 3 mps 758 mmHg 90%
    05:00 +28°C° 0 mm 3 mps 758 mmHg 90%
    06:00 +27°C° 0 mm 3 mps 758 mmHg 90%
    07:00 +29°C° 0 mm 3 mps 759 mmHg 85%
    08:00 +30°C° 0 mm 3 mps 759 mmHg 80%
    09:00 +31°C° 0 mm 3 mps 759 mmHg 75%
    10:00 +34°C° 0 mm 3 mps 759 mmHg 67%
    11:00 +36°C° 0 mm 2 mps 759 mmHg 60%
    12:00 +36°C° 0 mm 1 mps 759 mmHg 52%
    13:00 +38°C° 0 mm 2 mps 758 mmHg 51%
    14:00 +38°C° 0 mm 2 mps 757 mmHg 51%
    15:00 +38°C° 0 mm 3 mps 757 mmHg 51%
    16:00 +37°C° 0 mm 3 mps 757 mmHg 60%
    17:00 +35°C° 0 mm 2 mps 757 mmHg 70%
    18:00 +32°C° 0 mm 2 mps 757 mmHg 80%
    19:00 +31°C° 0 mm 2 mps 758 mmHg 83%
    20:00 +30°C° 0 mm 2 mps 758 mmHg 87%
    21:00 +29°C° 0 mm 2 mps 759 mmHg 90%
    22:00 +29°C° 0 mm 2 mps 759 mmHg 91%
    23:00 +29°C° 0 mm 3 mps 759 mmHg 91%

    Day after tomorrow, 23 July, Monday

    Time Temperature Precipitation Wind Pressure Humidity
    00:00 +29°C° 0 mm 3 mps 759 mmHg 92%
    01:00 +29°C° 0 mm 3 mps 759 mmHg 92%
    02:00 +28°C° 0 mm 3 mps 758 mmHg 92%
    03:00 +28°C° 0 mm 3 mps 758 mmHg 91%
    04:00 +28°C° 0 mm 3 mps 758 mmHg 92%
    05:00 +28°C° 0 mm 2 mps 758 mmHg 92%
    06:00 +28°C° 0 mm 2 mps 758 mmHg 92%
    07:00 +29°C° 0 mm 2 mps 758 mmHg 86%
    08:00 +31°C° 0 mm 2 mps 759 mmHg 80%
    09:00 +32°C° 0 mm 1 mps 759 mmHg 74%
    10:00 +35°C° 0 mm 2 mps 759 mmHg 64%
    11:00 +37°C° 0 mm 2 mps 759 mmHg 55%
    12:00 +39°C° 0 mm 2 mps 758 mmHg 45%
    13:00 +39°C° 0 mm 3 mps 758 mmHg 45%
    14:00 +39°C° 0 mm 3 mps 757 mmHg 45%
    15:00 +40°C° 0 mm 4 mps 757 mmHg 45%
    16:00 +37°C° 0.1 mm 3 mps 757 mmHg 56%
    17:00 +35°C° 0.1 mm 3 mps 757 mmHg 67%
    18:00 +34°C° 0.1 mm 2 mps 757 mmHg 78%
    19:00 +31°C° 0.1 mm 2 mps 758 mmHg 83%
    20:00 +30°C° 0.1 mm 2 mps 758 mmHg 88%
    21:00 +28°C° 0.1 mm 2 mps 759 mmHg 92%
    22:00 +28°C° 0.3 mm 2 mps 759 mmHg 93%
    23:00 +28°C° 0.3 mm 2 mps 760 mmHg 93%

    24 July, Tuesday

    Time Temperature Precipitation Wind Pressure Humidity
    00:00 +28°C° 0.3 mm 1 mps 760 mmHg 94%
    01:00 +28°C° 0.1 mm 1 mps 759 mmHg 95%
    02:00 +28°C° 0.1 mm 1 mps 759 mmHg 95%
    03:00 +27°C° 0.1 mm 1 mps 759 mmHg 96%
    04:00 +27°C° 0.1 mm 1 mps 759 mmHg 96%
    05:00 +27°C° 0.1 mm 1 mps 759 mmHg 96%
    06:00 +27°C° 0.1 mm 1 mps 759 mmHg 97%
    07:00 +29°C° 0.1 mm 1 mps 759 mmHg 88%
    08:00 +31°C° 0.1 mm 1 mps 760 mmHg 80%
    09:00 +33°C° 0.1 mm 1 mps 760 mmHg 71%
    10:00 +35°C° 0 mm 1 mps 760 mmHg 63%
    11:00 +37°C° 0 mm 2 mps 760 mmHg 54%
    12:00 +39°C° 0 mm 2 mps 759 mmHg 45%
    13:00 +39°C° 0 mm 3 mps 759 mmHg 47%
    14:00 +38°C° 0 mm 3 mps 758 mmHg 50%
    15:00 +38°C° 0 mm 3 mps 758 mmHg 52%
    16:00 +36°C° 0.1 mm 3 mps 758 mmHg 60%
    17:00 +35°C° 0.1 mm 3 mps 758 mmHg 69%
    18:00 +33°C° 0.1 mm 3 mps 758 mmHg 77%
    19:00 +31°C° 0.2 mm 2 mps 759 mmHg 83%
    20:00 +29°C° 0.2 mm 2 mps 759 mmHg 89%
    21:00 +28°C° 0.2 mm 1 mps 760 mmHg 95%
    22:00 +28°C° 0.3 mm 1 mps 760 mmHg 95%
    23:00 +27°C° 0.3 mm 1 mps 760 mmHg 95%

    25 July, Wednesday

    Time Temperature Precipitation Wind Pressure Humidity
    00:00 +27°C° 0.3 mm 1 mps 760 mmHg 96%
    01:00 +27°C° 0.2 mm 1 mps 760 mmHg 96%
    02:00 +27°C° 0.2 mm 1 mps 760 mmHg 97%
    03:00 +27°C° 0.2 mm 1 mps 759 mmHg 97%
    04:00 +27°C° 0.2 mm 1 mps 759 mmHg 97%
    05:00 +27°C° 0.2 mm 1 mps 760 mmHg 97%
    06:00 +27°C° 0.2 mm 1 mps 760 mmHg 97%
    07:00 +29°C° 0.1 mm 1 mps 760 mmHg 89%
    08:00 +31°C° 0.1 mm 1 mps 760 mmHg 80%
    09:00 +32°C° 0.1 mm 0 mps 760 mmHg 71%
    10:00 +35°C° 0 mm 1 mps 760 mmHg 65%
    11:00 +37°C° 0 mm 2 mps 760 mmHg 59%
    12:00 +38°C° 0 mm 3 mps 759 mmHg 54%
    13:00 +37°C° 0.2 mm 3 mps 759 mmHg 59%
    14:00 +37°C° 0.2 mm 4 mps 758 mmHg 64%
    15:00 +36°C° 0.2 mm 4 mps 758 mmHg 69%
    16:00 +35°C° 0.4 mm 3 mps 758 mmHg 76%
    17:00 +33°C° 0.4 mm 3 mps 758 mmHg 83%
    18:00 +31°C° 0.4 mm 2 mps 758 mmHg 90%
    19:00 +30°C° 0.7 mm 2 mps 759 mmHg 93%
    20:00 +29°C° 0.7 mm 2 mps 759 mmHg 95%
    21:00 +28°C° 0.7 mm 2 mps 760 mmHg 97%
    22:00 +28°C° 1.5 mm 2 mps 760 mmHg 97%
    23:00 +27°C° 1.5 mm 2 mps 760 mmHg 97%

    26 July, Thursday

    Time Temperature Precipitation Wind Pressure Humidity
    00:00 +27°C° 1.5 mm 2 mps 760 mmHg 97%
    01:00 +27°C° 2.2 mm 2 mps 759 mmHg 97%
    02:00 +27°C° 2.2 mm 2 mps 759 mmHg 97%
    03:00 +27°C° 2.2 mm 1 mps 759 mmHg 98%
    04:00 +27°C° 0.9 mm 2 mps 759 mmHg 97%
    05:00 +27°C° 0.9 mm 2 mps 759 mmHg 97%
    06:00 +27°C° 0.9 mm 2 mps 759 mmHg 97%
    07:00 +28°C° 0.1 mm 1 mps 759 mmHg 91%
    08:00 +30°C° 0.1 mm 1 mps 759 mmHg 85%
    09:00 +31°C° 0.1 mm 1 mps 760 mmHg 80%
    10:00 +33°C° 0 mm 1 mps 759 mmHg 71%
    11:00 +35°C° 0 mm 1 mps 759 mmHg 63%
    12:00 +38°C° 0 mm 2 mps 759 mmHg 54%
    13:00 +37°C° 0.6 mm 2 mps 758 mmHg 62%
    14:00 +36°C° 0.6 mm 2 mps 758 mmHg 69%
    15:00 +35°C° 0.6 mm 3 mps 757 mmHg 77%
    16:00 +34°C° 1 mm 2 mps 757 mmHg 81%
    17:00 +32°C° 1 mm 2 mps 757 mmHg 86%
    18:00 +31°C° 1 mm 2 mps 757 mmHg 91%
    19:00 +30°C° 1.1 mm 1 mps 758 mmHg 92%
    20:00 +29°C° 1.1 mm 1 mps 758 mmHg 93%
    21:00 +28°C° 1.1 mm 1 mps 759 mmHg 94%
    22:00 +27°C° 1.1 mm 1 mps 759 mmHg 94%
    23:00 +27°C° 1.1 mm 1 mps 759 mmHg 94%
    Show more